Location: Lower Kingswood
(51.2667°N, 0.2167°W)
Time: 20:32:36
(UTC+00:00)

SL-16 R/B - Pass Details

Date: 26 September 2023
Orbit: 842 x 845 km, 71.0° (Epoch: 09 December)

Event Time Altitude Azimuth Distance (km) Brightness Sun altitude
Rises 01:31:04 0° 331° (NNW) 3,414 5.7 -35.7°
Reaches altitude 10° 01:33:48 10° 342° (NNW) 2,476 5.0 -35.5°
Maximum altitude 01:38:50 32° 44° (NE) 1,434 3.8 -35.0°
Drops below altitude 10° 01:43:52 10° 106° (ESE) 2,467 4.8 -34.6°
Sets 01:46:35 0° 117° (ESE) 3,399 5.4 -34.4°
